Weather History for KSNC - March, 2013

Change the Weather History Date:

Saturday, March 9, 2013

  Actual Average (KHVN) Record (KHVN)
Temperature  
Mean Temperature 42 °F -  
Max Temperature 53 °F 41 °F 69 °F (1987)
Min Temperature 32 °F 27 °F 9 °F (2007)
Degree Days  
Heating Degree Days 22    
Moisture  
Dew Point 24 °F    
Average Humidity 57    
Maximum Humidity 100    
Minimum Humidity 26    
Precipitation  
Precipitation 0.00 in - - ()
Sea Level Pressure  
Sea Level Pressure 30.22 in    
Wind  
Wind Speed 11 mph (North)    
Max Wind Speed 17 mph    
Max Gust Speed 23 mph    
Visibility 10 miles    
Events      
Averages and records for this station are not official NWS values.
T = Trace of Precipitation, MM = Missing Value Source: NWS Daily Summary

Daily Weather History Graph

Daily Weather History Graph

Search for Another Location

Airport or City:

Trip Planner

Search our weather history database for the weather conditions in past years. The results will help you decide how hot, cold, wet, or windy it might be!

Date:

Astronomy

Mar. 09, 2013 Rise Set
Actual Time 6:11 AM EST 5:50 PM EST
Civil Twilight 5:43 AM EST 6:17 PM EST
Nautical Twilight 5:11 AM EST 6:49 PM EST
Astronomical Twilight 4:39 AM EST 7:22 PM EST
Moon 4:34 AM EST (3/9) 3:48 PM EST (3/9)
Length of Visible Light 12h 33m
Length of Day
11h 38m
Waning Crescent, 5% of the Moon is Illuminated
Mar 9
Waning Crescent
Mar 11
New
Mar 19
First Quarter
Mar 27
Full
Apr 3
Last Quarter

Hourly Weather History & Observations

Time (EST) Temp. Windchill Dew Point Humidity Pressure Visibility Wind Dir Wind Speed Gust Speed Precip Events Conditions
12:15 AM 35.6 °F 25.5 °F 24.8 °F 65% 30.13 in 10.0 mi North 17.3 mph 23.0 mph N/A   Clear
12:35 AM 35.6 °F 25.5 °F 24.8 °F 65% 30.13 in 10.0 mi North 17.3 mph 23.0 mph N/A   Clear
12:55 AM 35.6 °F 26.6 °F 24.8 °F 65% 30.13 in 10.0 mi North 13.8 mph 23.0 mph N/A   Clear
1:15 AM 35.6 °F 26.2 °F 24.8 °F 65% 30.13 in 10.0 mi North 15.0 mph 20.7 mph N/A   Clear
1:35 AM 35.6 °F 27.5 °F 24.8 °F 65% 30.12 in 10.0 mi North 11.5 mph 18.4 mph N/A   Clear
1:55 AM 35.6 °F 28.0 °F 23.0 °F 60% 30.12 in 10.0 mi NNE 10.4 mph 18.4 mph N/A   Clear
2:15 AM 35.6 °F 28.0 °F 23.0 °F 60% 30.11 in 10.0 mi NNE 10.4 mph 16.1 mph N/A   Clear
2:35 AM 35.6 °F 27.1 °F 23.0 °F 60% 30.12 in 10.0 mi North 12.7 mph 18.4 mph N/A   Clear
2:55 AM 35.6 °F 27.1 °F 23.0 °F 60% 30.12 in 10.0 mi North 12.7 mph 20.7 mph N/A   Clear
3:15 AM 33.8 °F 23.5 °F 24.8 °F 70% 30.12 in 10.0 mi North 16.1 mph 21.9 mph N/A   Clear
3:35 AM 33.8 °F 24.8 °F 24.8 °F 70% 30.13 in 10.0 mi North 12.7 mph 21.9 mph N/A   Clear
3:55 AM 33.8 °F 24.3 °F 23.0 °F 65% 30.13 in 10.0 mi North 13.8 mph 20.7 mph N/A   Clear
4:15 AM 33.8 °F 24.3 °F 23.0 °F 65% 30.14 in 10.0 mi North 13.8 mph 21.9 mph N/A   Clear
4:35 AM 33.8 °F 24.8 °F 23.0 °F 65% 30.15 in 10.0 mi North 12.7 mph 19.6 mph N/A   Clear
4:55 AM 33.8 °F 24.3 °F 23.0 °F 65% 30.15 in 10.0 mi North 13.8 mph 20.7 mph N/A   Clear
5:35 AM 33.8 °F 24.8 °F 23.0 °F 65% 30.17 in 10.0 mi North 12.7 mph 20.7 mph N/A   Clear
5:55 AM 33.8 °F 24.3 °F 23.0 °F 65% 30.17 in 10.0 mi North 13.8 mph 21.9 mph N/A   Clear
6:15 AM 33.8 °F 25.8 °F 23.0 °F 65% 30.18 in 10.0 mi North 10.4 mph 17.3 mph N/A   Clear
6:35 AM 35.6 °F 28.6 °F 23.0 °F 60% 30.18 in 10.0 mi NNE 9.2 mph - N/A   Clear
6:55 AM 35.6 °F 27.5 °F 23.0 °F 60% 30.20 in 10.0 mi North 11.5 mph 18.4 mph N/A   Clear
7:15 AM 37.4 °F 30.3 °F 23.0 °F 56% 30.19 in 10.0 mi North 10.4 mph 17.3 mph N/A   Clear
7:35 AM 37.4 °F 31.4 °F 23.0 °F 56% 30.19 in 10.0 mi North 8.1 mph - N/A   Clear
8:15 AM 39.2 °F 33.0 °F 21.2 °F 49% 30.20 in 10.0 mi North 9.2 mph 17.3 mph N/A   Clear
8:35 AM 41.0 °F 34.3 °F 21.2 °F 45% 30.20 in 10.0 mi NNE 11.5 mph - N/A   Clear
8:55 AM 41.0 °F 34.7 °F 21.2 °F 45% 30.21 in 10.0 mi North 10.4 mph 17.3 mph N/A   Clear
9:15 AM 42.8 °F 37.5 °F 21.2 °F 42% 30.21 in 10.0 mi NNE 9.2 mph - N/A   Clear
9:35 AM 42.8 °F 37.0 °F 23.0 °F 46% 30.21 in 10.0 mi North 10.4 mph - N/A   Clear
9:55 AM 44.6 °F 38.8 °F 21.2 °F 39% 30.21 in 10.0 mi North 11.5 mph - N/A   Clear
10:15 AM 44.6 °F 41.4 °F 21.2 °F 39% 30.22 in 9.0 mi North 5.8 mph - N/A   Clear
10:35 AM 44.6 °F 38.8 °F 21.2 °F 39% 30.22 in 10.0 mi North 11.5 mph - N/A   Clear
10:55 AM 44.6 °F 40.2 °F 21.2 °F 39% 30.22 in 10.0 mi North 8.1 mph - N/A   Clear
11:15 AM 46.4 °F 42.4 °F 21.2 °F 37% 30.22 in 10.0 mi North 8.1 mph - N/A   Clear
11:35 AM 46.4 °F 40.7 °F 21.2 °F 37% 30.22 in 9.0 mi North 12.7 mph - N/A   Clear
11:55 AM 46.4 °F 41.1 °F 21.2 °F 37% 30.21 in 10.0 mi North 11.5 mph - N/A   Clear
12:15 PM 48.2 °F - 21.2 °F 34% 30.21 in 10.0 mi North 9.2 mph - N/A   Clear
12:35 PM 48.2 °F - 19.4 °F 32% 30.21 in 10.0 mi North 9.2 mph - N/A   Clear
12:55 PM 48.2 °F - 19.4 °F 32% 30.20 in 10.0 mi NNE 8.1 mph - N/A   Clear
1:15 PM 48.2 °F - 21.2 °F 34% 30.20 in 10.0 mi NNW 10.4 mph - N/A   Clear
1:35 PM 50.0 °F - 21.2 °F 32% 30.19 in 10.0 mi NNW 10.4 mph - N/A   Clear
1:55 PM 50.0 °F - 19.4 °F 30% 30.19 in 10.0 mi NNE 8.1 mph - N/A   Clear
2:15 PM 51.8 °F - 19.4 °F 28% 30.19 in 9.0 mi NNE 4.6 mph - N/A   Clear
2:35 PM 51.8 °F - 19.4 °F 28% 30.20 in 10.0 mi North 6.9 mph - N/A   Clear
2:55 PM 51.8 °F - 19.4 °F 28% 30.20 in 10.0 mi North 6.9 mph - N/A   Clear
3:15 PM 51.8 °F - 19.4 °F 28% 30.21 in 10.0 mi NNW 6.9 mph - N/A   Clear
3:35 PM 51.8 °F - 19.4 °F 28% 30.22 in 10.0 mi NNW 5.8 mph - N/A   Clear
3:55 PM 51.8 °F - 19.4 °F 28% 30.23 in 10.0 mi North 4.6 mph - N/A   Clear
4:15 PM 53.6 °F - 19.4 °F 26% 30.23 in 10.0 mi NNW 6.9 mph - N/A   Clear
4:35 PM 51.8 °F - 19.4 °F 28% 30.23 in 10.0 mi NNW 3.5 mph - N/A   Clear
4:55 PM 51.8 °F - 17.6 °F 26% 30.24 in 10.0 mi Calm Calm - N/A   Clear
5:15 PM 50.0 °F - 17.6 °F 28% 30.25 in 10.0 mi SSE 5.8 mph - N/A   Clear
5:35 PM 42.8 °F 38.6 °F 26.6 °F 53% 30.25 in 10.0 mi South 6.9 mph - N/A   Clear
5:55 PM 41.0 °F 38.0 °F 30.2 °F 65% 30.26 in 10.0 mi SSW 4.6 mph - N/A   Clear
6:15 PM 39.2 °F 37.0 °F 30.2 °F 70% 30.27 in 10.0 mi South 3.5 mph - N/A   Clear
6:35 PM 39.2 °F 35.9 °F 30.2 °F 70% 30.27 in 10.0 mi South 4.6 mph - N/A   Clear
6:55 PM 37.4 °F 33.8 °F 30.2 °F 75% 30.28 in 10.0 mi SSE 4.6 mph - N/A   Clear
7:15 PM 37.4 °F - 32.0 °F 81% 30.29 in 10.0 mi Calm Calm - N/A   Clear
7:35 PM 35.6 °F - 30.2 °F 81% 30.30 in 10.0 mi Calm Calm - N/A   Clear
7:55 PM 37.4 °F 33.8 °F 32.0 °F 81% 30.29 in 10.0 mi SSE 4.6 mph - N/A   Clear
8:35 PM 33.8 °F - 30.2 °F 87% 30.30 in 10.0 mi Calm Calm - N/A   Clear
8:55 PM 33.8 °F 30.8 °F 32.0 °F 93% 30.31 in 10.0 mi West 3.5 mph - N/A   Clear
9:15 PM 33.8 °F - 32.0 °F 93% 30.31 in 10.0 mi Calm Calm - N/A   Clear
9:35 PM 33.8 °F - 32.0 °F 93% 30.30 in 10.0 mi Calm Calm - N/A   Clear
9:55 PM 32.0 °F - 32.0 °F 100% 30.31 in 10.0 mi Calm Calm - N/A   Clear
10:15 PM 32.0 °F 28.7 °F 32.0 °F 100% 30.31 in 10.0 mi WNW 3.5 mph - N/A   Clear
10:35 PM 32.0 °F 28.7 °F 32.0 °F 100% 30.32 in 8.0 mi NW 3.5 mph - N/A   Clear
10:55 PM 33.8 °F - 32.0 °F 93% 30.33 in 10.0 mi Calm Calm - N/A   Clear
11:15 PM 32.0 °F 28.7 °F 30.2 °F 93% 30.33 in 9.0 mi North 3.5 mph - N/A   Clear
11:35 PM 33.8 °F - 30.2 °F 87% 30.33 in 10.0 mi Calm Calm - N/A   Clear
11:55 PM 33.8 °F 29.6 °F 30.2 °F 87% 30.34 in 10.0 mi NE 4.6 mph - N/A   Clear